Location: Atbuku
(36.4936°N, 30.4362°E)
Time: 04:47:29
(UTC+00:00)

Cosmos 1417 Rocket - Pass Details

Date: 11 December 2025
Orbit: 951 x 998 km, 83.0° (Epoch: 13 January)

Event Time Altitude Azimuth Distance (km) Brightness Sun altitude
Rises 16:52:22 0° 178° (S) 3,655 7.6 -25.2°
Reaches altitude 10° 16:54:53 10° 176° (S) 2,704 6.9 -25.7°
Maximum altitude 17:01:02 71° 94° (E) 1,016 4.3 -27.0°
Enters shadow 17:01:13 70° 80° (E) 1,019 4.3 -27.0°
